Time,TemperatureF,DewpointF,PressureIn,WindDirection,WindDirectionDegrees,WindSpeedMPH,WindSpeedGustMPH,Humidity,HourlyPrecipIn,Conditions,Clouds,dailyrainin,SolarRadiationWatts/m^2,SoftwareType,DateUTC
2013-03-22 00:22:00,69.0,-28.0,-100.00,NW,320,8.0,14.0,0,0.00,,,0.00,0.000000,,2013-03-22 10:22:00,
2013-03-22 00:32:00,69.0,-28.0,-100.00,NW,320,8.0,14.0,0,0.00,,,0.00,0.000000,,2013-03-22 10:32:00,
2013-03-22 00:42:00,69.0,-28.0,-100.00,NW,320,8.0,14.0,0,0.00,,,0.00,0.000000,,2013-03-22 10:42:00,
2013-03-22 00:52:00,69.0,-28.0,-100.00,NW,319,7.0,14.0,0,0.00,,,0.00,0.000000,,2013-03-22 10:52:00,
2013-03-22 01:12:00,69.0,-28.0,-100.00,NW,319,7.0,14.0,0,0.00,,,0.00,0.000000,,2013-03-22 11:12:00,
2013-03-22 01:22:00,69.0,-28.0,-100.00,NW,319,7.0,14.0,0,0.00,,,0.00,0.000000,,2013-03-22 11:22:00,
2013-03-22 01:32:00,69.0,-28.0,-100.00,NW,319,7.0,14.0,0,0.00,,,0.00,0.000000,,2013-03-22 11:32:00,
2013-03-22 01:42:00,69.0,-28.0,-100.00,NW,319,7.0,14.0,0,0.00,,,0.00,0.000000,,2013-03-22 11:42:00,
2013-03-22 02:12:00,70.0,-27.0,-100.00,NE,43,7.0,15.0,0,0.00,,,0.00,0.000000,,2013-03-22 12:12:00,
2013-03-22 02:22:00,70.0,-27.0,-100.00,NE,43,7.0,15.0,0,0.00,,,0.00,0.000000,,2013-03-22 12:22:00,
2013-03-22 02:32:00,70.0,-27.0,-100.00,NE,43,7.0,15.0,0,0.00,,,0.00,0.000000,,2013-03-22 12:32:00,
2013-03-22 02:42:00,70.0,-27.0,-100.00,NE,43,7.0,15.0,0,0.00,,,0.00,0.000000,,2013-03-22 12:42:00,
2013-03-22 02:51:00,70.0,-27.0,-100.00,NE,43,7.0,15.0,0,0.00,,,0.00,0.000000,,2013-03-22 12:51:00,
2013-03-22 02:52:00,68.0,-28.0,-100.00,SSE,168,6.0,11.0,0,0.00,,,0.00,0.000000,,2013-03-22 12:52:00,
2013-03-22 03:12:00,68.0,-28.0,-100.00,SSE,168,6.0,11.0,0,0.00,,,0.00,0.000000,,2013-03-22 13:12:00,
2013-03-22 03:22:00,68.0,-28.0,-100.00,SSE,168,6.0,11.0,0,0.00,,,0.00,0.000000,,2013-03-22 13:22:00,
2013-03-22 03:32:00,68.0,-28.0,-100.00,SSE,168,6.0,11.0,0,0.00,,,0.00,0.000000,,2013-03-22 13:32:00,
2013-03-22 03:42:00,68.0,-28.0,-100.00,SSE,168,6.0,11.0,0,0.00,,,0.00,0.000000,,2013-03-22 13:42:00,
2013-03-22 03:52:00,69.0,-28.0,-100.00,SSW,206,7.0,9.0,0,0.00,,,0.00,0.000000,,2013-03-22 13:52:00,
2013-03-22 04:22:00,69.0,-28.0,-100.00,SSW,206,7.0,9.0,0,0.00,,,0.00,0.000000,,2013-03-22 14:22:00,
2013-03-22 04:32:00,69.0,-28.0,-100.00,SSW,206,7.0,9.0,0,0.00,,,0.00,0.000000,,2013-03-22 14:32:00,
2013-03-22 04:42:00,69.0,-28.0,-100.00,SSW,206,7.0,9.0,0,0.00,,,0.00,0.000000,,2013-03-22 14:42:00,
2013-03-22 04:52:00,69.0,-28.0,-100.00,WNW,292,3.0,8.0,0,0.00,,,0.00,0.000000,,2013-03-22 14:52:00,
2013-03-22 05:12:00,69.0,-28.0,-100.00,WNW,292,3.0,8.0,0,0.00,,,0.00,0.000000,,2013-03-22 15:12:00,
2013-03-22 05:22:00,69.0,-28.0,-100.00,WNW,292,3.0,8.0,0,0.00,,,0.00,0.000000,,2013-03-22 15:22:00,
2013-03-22 05:32:00,69.0,-28.0,-100.00,WNW,292,3.0,8.0,0,0.00,,,0.00,0.000000,,2013-03-22 15:32:00,
2013-03-22 05:42:00,69.0,-28.0,-100.00,WNW,292,3.0,8.0,0,0.00,,,0.00,0.000000,,2013-03-22 15:42:00,
2013-03-22 05:52:00,69.0,-28.0,-100.00,SE,144,2.0,10.0,0,0.00,,,0.00,0.000000,,2013-03-22 15:52:00,
2013-03-22 06:13:00,69.0,-28.0,-100.00,SE,144,2.0,10.0,0,0.00,,,0.00,0.000000,,2013-03-22 16:13:00,
2013-03-22 06:22:00,69.0,-28.0,-100.00,SE,144,2.0,10.0,0,0.00,,,0.00,0.000000,,2013-03-22 16:22:00,
2013-03-22 06:32:00,69.0,-28.0,-100.00,SE,144,2.0,10.0,0,0.00,,,0.00,0.000000,,2013-03-22 16:32:00,
2013-03-22 06:42:00,69.0,-28.0,-100.00,SE,144,2.0,10.0,0,0.00,,,0.00,0.000000,,2013-03-22 16:42:00,
2013-03-22 06:52:00,68.0,-28.0,-100.00,NW,323,2.0,10.0,0,0.00,,,0.00,0.000000,,2013-03-22 16:52:00,
2013-03-22 07:23:00,68.0,-28.0,-100.00,NW,323,2.0,10.0,0,0.00,,,0.00,0.000000,,2013-03-22 17:23:00,
2013-03-22 07:32:00,68.0,-28.0,-100.00,NW,323,2.0,10.0,0,0.00,,,0.00,0.000000,,2013-03-22 17:32:00,
2013-03-22 07:42:00,68.0,-28.0,-100.00,NW,323,2.0,10.0,0,0.00,,,0.00,0.000000,,2013-03-22 17:42:00,
2013-03-22 07:52:00,68.0,-28.0,-100.00,WNW,282,3.0,11.0,0,0.00,,,0.00,10.000000,,2013-03-22 17:52:00,
2013-03-22 08:12:00,68.0,-28.0,-100.00,WNW,282,3.0,11.0,0,0.00,,,0.00,10.000000,,2013-03-22 18:12:00,
2013-03-22 08:22:00,68.0,-28.0,-100.00,WNW,282,3.0,11.0,0,0.00,,,0.00,10.000000,,2013-03-22 18:22:00,
2013-03-22 08:32:00,68.0,-28.0,-100.00,WNW,282,3.0,11.0,0,0.00,,,0.00,10.000000,,2013-03-22 18:32:00,
2013-03-22 08:42:00,68.0,-28.0,-100.00,WNW,282,3.0,11.0,0,0.00,,,0.00,10.000000,,2013-03-22 18:42:00,
2013-03-22 09:12:00,73.0,-25.0,-100.00,ESE,108,7.0,11.0,0,0.00,,,-99.99,221.000000,,2013-03-22 19:12:00,
2013-03-22 09:22:00,73.0,-25.0,-100.00,ESE,108,7.0,11.0,0,0.00,,,-99.99,221.000000,,2013-03-22 19:22:00,
2013-03-22 09:32:00,73.0,-25.0,-100.00,ESE,108,7.0,11.0,0,0.00,,,-99.99,221.000000,,2013-03-22 19:32:00,
2013-03-22 09:42:00,73.0,-25.0,-100.00,ESE,108,7.0,11.0,0,0.00,,,-99.99,221.000000,,2013-03-22 19:42:00,
2013-03-22 09:51:00,73.0,-25.0,-100.00,ESE,108,7.0,11.0,0,0.00,,,-99.99,221.000000,,2013-03-22 19:51:00,
2013-03-22 10:12:00,73.0,-25.0,-100.00,East,88,5.0,11.0,0,0.00,,,0.00,192.000000,,2013-03-22 20:12:00,
2013-03-22 10:22:00,73.0,-25.0,-100.00,East,88,5.0,11.0,0,0.00,,,0.00,192.000000,,2013-03-22 20:22:00,
2013-03-22 10:32:00,73.0,-25.0,-100.00,East,88,5.0,11.0,0,0.00,,,0.00,192.000000,,2013-03-22 20:32:00,
2013-03-22 10:42:00,73.0,-25.0,-100.00,East,88,5.0,11.0,0,0.00,,,0.00,192.000000,,2013-03-22 20:42:00,
2013-03-22 10:51:00,73.0,-25.0,-100.00,East,88,5.0,11.0,0,0.00,,,0.00,192.000000,,2013-03-22 20:51:00,
2013-03-22 10:52:00,75.0,-24.0,-100.00,South,187,8.0,9.0,0,0.00,,,0.00,267.000000,,2013-03-22 20:52:00,
2013-03-22 11:22:00,75.0,-24.0,-100.00,South,187,8.0,9.0,0,0.00,,,0.00,267.000000,,2013-03-22 21:22:00,
2013-03-22 11:32:00,75.0,-24.0,-100.00,South,187,8.0,9.0,0,0.00,,,0.00,267.000000,,2013-03-22 21:32:00,
2013-03-22 11:42:00,75.0,-24.0,-100.00,South,187,8.0,9.0,0,0.00,,,0.00,267.000000,,2013-03-22 21:42:00,
2013-03-22 11:52:00,73.0,-25.0,-100.00,WNW,297,9.0,14.0,0,0.00,,,0.00,337.000000,,2013-03-22 21:52:00,
2013-03-22 12:12:00,73.0,-25.0,-100.00,WNW,297,9.0,14.0,0,0.00,,,0.00,337.000000,,2013-03-22 22:12:00,
2013-03-22 12:23:00,73.0,-25.0,-100.00,WNW,297,9.0,14.0,0,0.00,,,0.00,337.000000,,2013-03-22 22:23:00,
2013-03-22 12:32:00,73.0,-25.0,-100.00,WNW,297,9.0,14.0,0,0.00,,,0.00,337.000000,,2013-03-22 22:32:00,
2013-03-22 12:42:00,73.0,-25.0,-100.00,WNW,297,9.0,14.0,0,0.00,,,0.00,337.000000,,2013-03-22 22:42:00,
2013-03-22 12:52:00,72.0,-26.0,-100.00,NNE,20,4.0,13.0,0,0.00,,,0.00,157.000000,,2013-03-22 22:52:00,
2013-03-22 13:22:00,72.0,-26.0,-100.00,NNE,20,4.0,13.0,0,0.00,,,0.00,157.000000,,2013-03-22 23:22:00,
2013-03-22 13:32:00,72.0,-26.0,-100.00,NNE,20,4.0,13.0,0,0.00,,,0.00,157.000000,,2013-03-22 23:32:00,
2013-03-22 13:42:00,72.0,-26.0,-100.00,NNE,20,4.0,13.0,0,0.00,,,0.00,157.000000,,2013-03-22 23:42:00,
2013-03-22 14:12:00,78.0,-22.0,-100.00,SE,143,8.0,13.0,0,0.00,,,0.00,487.000000,,2013-03-23 00:12:00,
2013-03-22 14:23:00,78.0,-22.0,-100.00,SE,143,8.0,13.0,0,0.00,,,0.00,487.000000,,2013-03-23 00:23:00,
2013-03-22 14:32:00,78.0,-22.0,-100.00,SE,143,8.0,13.0,0,0.00,,,0.00,487.000000,,2013-03-23 00:32:00,
2013-03-22 14:42:00,78.0,-22.0,-100.00,SE,143,8.0,13.0,0,0.00,,,0.00,487.000000,,2013-03-23 00:42:00,
2013-03-22 14:51:00,78.0,-22.0,-100.00,SE,143,8.0,13.0,0,0.00,,,0.00,487.000000,,2013-03-23 00:51:00,
2013-03-22 14:52:00,75.0,-24.0,-100.00,SW,232,11.0,21.0,0,0.00,,,0.00,444.000000,,2013-03-23 00:52:00,
2013-03-22 15:22:00,75.0,-24.0,-100.00,SW,232,11.0,21.0,0,0.00,,,0.00,444.000000,,2013-03-23 01:22:00,
2013-03-22 15:32:00,75.0,-24.0,-100.00,SW,232,11.0,21.0,0,0.00,,,0.00,444.000000,,2013-03-23 01:32:00,
2013-03-22 15:42:00,75.0,-24.0,-100.00,SW,232,11.0,21.0,0,0.00,,,0.00,444.000000,,2013-03-23 01:42:00,
2013-03-22 16:12:00,73.0,-25.0,-100.00,SW,224,11.0,26.0,0,0.00,,,0.00,335.000000,,2013-03-23 02:12:00,
2013-03-22 16:22:00,73.0,-25.0,-100.00,SW,224,11.0,26.0,0,0.00,,,0.00,335.000000,,2013-03-23 02:22:00,
2013-03-22 16:31:00,73.0,-25.0,-100.00,SW,224,11.0,26.0,0,0.00,,,0.00,335.000000,,2013-03-23 02:31:00,
2013-03-22 16:42:00,73.0,-25.0,-100.00,SW,224,11.0,26.0,0,0.00,,,0.00,335.000000,,2013-03-23 02:42:00,
2013-03-22 16:51:00,73.0,-25.0,-100.00,SW,224,11.0,26.0,0,0.00,,,0.00,335.000000,,2013-03-23 02:51:00,
2013-03-22 16:52:00,73.0,-25.0,-100.00,SW,221,9.0,24.0,0,0.00,,,0.00,303.000000,,2013-03-23 02:52:00,
2013-03-22 17:12:00,73.0,-25.0,-100.00,SW,221,9.0,24.0,0,0.00,,,0.00,303.000000,,2013-03-23 03:12:00,
2013-03-22 17:22:00,73.0,-25.0,-100.00,SW,221,9.0,24.0,0,0.00,,,0.00,303.000000,,2013-03-23 03:22:00,
2013-03-22 17:33:00,73.0,-25.0,-100.00,SW,221,9.0,24.0,0,0.00,,,0.00,303.000000,,2013-03-23 03:33:00,
2013-03-22 17:42:00,73.0,-25.0,-100.00,SW,221,9.0,24.0,0,0.00,,,0.00,303.000000,,2013-03-23 03:42:00,
2013-03-22 17:52:00,74.0,-25.0,-100.00,SSW,213,7.0,21.0,0,0.00,,,0.00,289.000000,,2013-03-23 03:52:00,
2013-03-22 18:12:00,74.0,-25.0,-100.00,SSW,213,7.0,21.0,0,0.00,,,0.00,289.000000,,2013-03-23 04:12:00,
2013-03-22 18:23:00,74.0,-25.0,-100.00,SSW,213,7.0,21.0,0,0.00,,,0.00,289.000000,,2013-03-23 04:23:00,
2013-03-22 18:32:00,74.0,-25.0,-100.00,SSW,213,7.0,21.0,0,0.00,,,0.00,289.000000,,2013-03-23 04:32:00,
2013-03-22 18:42:00,74.0,-25.0,-100.00,SSW,213,7.0,21.0,0,0.00,,,0.00,289.000000,,2013-03-23 04:42:00,
2013-03-22 18:52:00,72.0,-26.0,-100.00,SE,141,7.0,13.0,0,0.00,,,0.00,116.000000,,2013-03-23 04:52:00,
2013-03-22 19:12:00,72.0,-26.0,-100.00,SE,141,7.0,13.0,0,0.00,,,0.00,116.000000,,2013-03-23 05:12:00,
2013-03-22 19:22:00,72.0,-26.0,-100.00,SE,141,7.0,13.0,0,0.00,,,0.00,116.000000,,2013-03-23 05:22:00,
2013-03-22 19:32:00,72.0,-26.0,-100.00,SE,141,7.0,13.0,0,0.00,,,0.00,116.000000,,2013-03-23 05:32:00,
2013-03-22 19:42:00,72.0,-26.0,-100.00,SE,141,7.0,13.0,0,0.00,,,0.00,116.000000,,2013-03-23 05:42:00,
2013-03-22 20:22:00,69.0,-28.0,-100.00,SW,234,4.0,12.0,0,0.00,,,0.00,13.000000,,2013-03-23 06:22:00,
2013-03-22 20:32:00,69.0,-28.0,-100.00,SW,234,4.0,12.0,0,0.00,,,0.00,13.000000,,2013-03-23 06:32:00,
2013-03-22 20:42:00,69.0,-28.0,-100.00,SW,234,4.0,12.0,0,0.00,,,0.00,13.000000,,2013-03-23 06:42:00,
2013-03-22 20:51:00,69.0,-28.0,-100.00,SW,234,4.0,12.0,0,0.00,,,0.00,13.000000,,2013-03-23 06:51:00,
2013-03-22 20:52:00,70.0,-27.0,-100.00,SE,140,6.0,8.0,0,0.00,,,0.00,0.000000,,2013-03-23 06:52:00,
2013-03-22 21:22:00,70.0,-27.0,-100.00,SE,140,6.0,8.0,0,0.00,,,0.00,0.000000,,2013-03-23 07:22:00,
2013-03-22 21:32:00,70.0,-27.0,-100.00,SE,140,6.0,8.0,0,0.00,,,0.00,0.000000,,2013-03-23 07:32:00,
2013-03-22 21:42:00,70.0,-27.0,-100.00,SE,140,6.0,8.0,0,0.00,,,0.00,0.000000,,2013-03-23 07:42:00,
2013-03-22 22:12:00,69.0,-28.0,-100.00,NE,39,6.0,8.0,0,0.00,,,0.00,0.000000,,2013-03-23 08:12:00,
2013-03-22 22:22:00,69.0,-28.0,-100.00,NE,39,6.0,8.0,0,0.00,,,0.00,0.000000,,2013-03-23 08:22:00,
2013-03-22 22:32:00,69.0,-28.0,-100.00,NE,39,6.0,8.0,0,0.00,,,0.00,0.000000,,2013-03-23 08:32:00,
2013-03-22 22:42:00,69.0,-28.0,-100.00,NE,39,6.0,8.0,0,0.00,,,0.00,0.000000,,2013-03-23 08:42:00,
2013-03-22 22:51:00,69.0,-28.0,-100.00,NE,39,6.0,8.0,0,0.00,,,0.00,0.000000,,2013-03-23 08:51:00,
2013-03-22 22:52:00,66.0,-29.0,-100.00,East,95,5.0,8.0,0,0.00,,,0.00,0.000000,,2013-03-23 08:52:00,
2013-03-22 23:12:00,66.0,-29.0,-100.00,East,95,5.0,8.0,0,0.00,,,0.00,0.000000,,2013-03-23 09:12:00,
2013-03-22 23:22:00,66.0,-29.0,-100.00,East,95,5.0,8.0,0,0.00,,,0.00,0.000000,,2013-03-23 09:22:00,
2013-03-22 23:32:00,66.0,-29.0,-100.00,East,95,5.0,8.0,0,0.00,,,0.00,0.000000,,2013-03-23 09:32:00,
2013-03-22 23:42:00,66.0,-29.0,-100.00,East,95,5.0,8.0,0,0.00,,,0.00,0.000000,,2013-03-23 09:42:00,
2013-03-22 23:52:00,66.0,-29.0,-100.00,SW,232,7.0,10.0,0,0.00,,,0.00,0.000000,,2013-03-23 09:52:00,